Jacksonville Craig, FL

4:36 AM EDT on April 23, 2018 (GMT -0400)
Craig Municipal

Weather History for KCRG - November, 2011

Change the Weather History Date:

Sunday, November 27, 2011

  Actual Average Record
Temperature  
Mean Temperature 72 °F -  
Max Temperature 77 °F 68 °F 79 °F (2005)
Min Temperature 66 °F 49 °F 41 °F (2008)
Cooling Degree Days 6    
Growing Degree Days 22 (Base 50)    
Moisture  
Dew Point 60 °F    
Average Humidity 65    
Maximum Humidity 83    
Minimum Humidity 52    
Precipitation  
Precipitation 0.00 in - - ()
Sea Level Pressure  
Sea Level Pressure 30.07 in    
Wind  
Wind Speed 5 mph (SSE)    
Max Wind Speed 17 mph    
Max Gust Speed 22 mph    
Visibility 10 miles    
Events      
Averages and records for this station are not official NWS values.
T = Trace of Precipitation, MM = Missing Value Source: NWS Daily Summary

Daily Weather History Graph

Daily Weather History Graph

Search for Another Location

Airport or City:

Astronomy

Nov. 27, 2011 Rise Set
Actual Time 7:01 AM EST 5:25 PM EST
Civil Twilight 6:35 AM EST 5:51 PM EST
Nautical Twilight 6:06 AM EST 6:20 PM EST
Astronomical Twilight 5:37 AM EST 6:49 PM EST
Moon 9:23 AM EST (11/27) 8:03 PM EST (11/27)
Length of Visible Light 11h 15m
Length of Day
10h 23m
Waxing Crescent, 8% of the Moon is Illuminated
Nov 27
Waxing Crescent
Dec 2
First Quarter
Dec 10
Full
Dec 17
Last Quarter
Dec 24
New

Hourly Weather History & Observations

Time (EST) Temp. Dew Point Humidity Pressure Visibility Wind Dir Wind Speed Gust Speed Precip Events Conditions
12:53 AM - - N/A% 30.17 in 10.0 mi ESE 3.5 mph - N/A   Clear
2:53 AM - - N/A% 30.14 in 10.0 mi Calm Calm - N/A   Overcast
3:53 AM - - N/A% 30.14 in 10.0 mi Calm Calm - N/A   Overcast
5:53 AM - - N/A% 30.13 in 10.0 mi Calm Calm - N/A   Overcast
6:53 AM - - N/A% 30.14 in 10.0 mi Calm Calm - N/A   Overcast
7:53 AM 66.2 °F 59.0 °F 78% 30.14 in 10.0 mi Calm Calm - N/A   Overcast
8:53 AM 66.2 °F 61.0 °F 83% 30.15 in 10.0 mi SSW 5.8 mph - N/A   Overcast
10:53 AM 75.2 °F 61.0 °F 61% 30.14 in 10.0 mi South 11.5 mph - N/A   Overcast
11:53 AM 75.2 °F 61.0 °F 61% 30.11 in 10.0 mi South 10.4 mph - N/A   Overcast
12:53 PM 75.2 °F 57.9 °F 55% 30.08 in 10.0 mi SSE 11.5 mph 19.6 mph N/A   Overcast
1:53 PM 77.0 °F 57.9 °F 52% 30.05 in 10.0 mi SSE 11.5 mph 19.6 mph N/A   Mostly Cloudy
2:53 PM 77.0 °F 59.0 °F 54% 30.04 in 10.0 mi SE 13.8 mph 20.7 mph N/A   Overcast
3:53 PM 75.2 °F 59.0 °F 57% 30.03 in 10.0 mi SSE 15.0 mph 21.9 mph N/A   Scattered Clouds
4:53 PM 75.2 °F 59.0 °F 57% 30.03 in 10.0 mi SSE 17.3 mph 21.9 mph N/A   Scattered Clouds
5:53 PM 71.6 °F 59.0 °F 64% 30.02 in 10.0 mi SSE 11.5 mph - N/A   Partly Cloudy
6:53 PM 71.6 °F 60.1 °F 67% 30.01 in 10.0 mi SSE 10.4 mph 17.3 mph N/A   Mostly Cloudy
7:53 PM 69.8 °F 60.1 °F 71% 30.02 in 10.0 mi South 4.6 mph - N/A   Partly Cloudy
8:53 PM 69.8 °F 60.1 °F 71% 30.01 in 10.0 mi SSE 4.6 mph - N/A   Clear
9:53 PM 66.2 °F 60.1 °F 81% 30.00 in 10.0 mi SSE 8.1 mph - N/A   Scattered Clouds
10:53 PM - - N/A% 30.01 in 10.0 mi South 5.8 mph - N/A   Mostly Cloudy
11:53 PM - - N/A% 29.99 in 10.0 mi South 8.1 mph - N/A   Mostly Cloudy